Regional Weather Roundup
Issued by NWS

Home | Current Version | Previous Version | Text Only | Print | Product List | Glossary On
Versions: 1 2 3 4 5 6 7 8 9 10 11 12 13 14 15 16 17 18 19 20 21 22 23 24 25 26 27 28 29 30 31 32 33 34 35 36 37 38 39 40 41 42 43 44 45 46 47 48 49 50
000
ASUS45 KABQ 302301
RWRNM
NEW MEXICO REGIONAL WEATHER ROUNDUP
NATIONAL WEATHER SERVICE ALBUQUERQUE NM
500 PM MDT SAT JUL 30 2016

NOTE: "FAIR" MEANS FEW OR NO CLOUDS BELOW 12,000 FEET AGL WITH NO
       SIGNIFICANT WEATHER OR OBSTRUCTIONS TO VISION.

      THIS PRODUCT IS RELEASED AS TWO VERSIONS.  ONE VERSION NEAR
      THE TOP OF THE HOUR CONTAINING PRELIMINARY DATA FROM ALBUQUERQUE
      AND OTHER STATIONS.  A FINAL VERSION WITH ADDITIONAL DATA IS
      ISSUED ABOUT 10 MINUTES AFTER THE HOUR.

NMZ501-503-504-510>518-310000-
NORTHWEST PLATEAU/NORTHCENTRAL MOUNTAINS

CITY           SKY/WX    TMP DP  RH WIND       PRES   REMARKS
FARMINGTON     FAIR      96  35  11 W10G17    29.98F
LOS ALAMOS     FAIR      81  34  18 NW5       30.19F
SANTA FE       FAIR      86  41  20 W6        30.10F
TAOS           PTSUNNY   72  37  28 W25G38    30.23R THUNDER
ANGEL FIRE     PTSUNNY   73  39  29 SE9G20    30.29R

$$
NMZ402-403-502-505>509-310000-
WESTCENTRAL MOUNTAINS/SOUTHWEST MOUNTAINS

CITY           SKY/WX    TMP DP  RH WIND       PRES   REMARKS
GALLUP         FAIR      90  38  16 NW13G20   30.09F
GRANTS         FAIR      87  33  15 SW9       30.14F
SILVER CITY    PTSUNNY   75  55  49 N15G21    30.09F

$$
NMZ407-409-411-412-310000-
SOUTHERN DESERTS

CITY           SKY/WX    TMP DP  RH WIND       PRES   REMARKS
LORDSBURG      FAIR      86  54  32 N18       30.00F
DEMING         FAIR      93  50  23 CALM      29.99F
LAS CRUCES     FAIR      92  47  21 SW3       30.00F
HOLLOMAN AFB   PTSUNNY   93  51  23 VRB1      29.95F
ALAMOGORDO     FAIR      93  54  26 CALM      29.99S
T OR C         FAIR      91  49  23 VRB7      30.01F

$$
NMZ519>523-310000-
CENTRAL VALLEYS/CENTRAL HIGHLANDS

CITY           SKY/WX    TMP DP  RH WIND       PRES   REMARKS
ALBUQUERQUE    PTSUNNY   92  43  18 CALM      30.02F
DOUBLE EAGLE   PTSUNNY   91  46  21 SE13      30.07F
MORIARTY ARPT  FAIR      91  44  19 S15       30.10F
CLINES CORNERS CLOUDY    83  46  27 SW17      30.17F
BELEN          FAIR      93  39  15 SE8       30.02R
SOCORRO        FAIR      92  43  18 S3        30.01R

$$
NMZ524>526-539-540-310000-
SOUTHCENTRAL MOUNTAINS

CITY           SKY/WX    TMP DP  RH WIND       PRES   REMARKS
RUIDOSO          N/A     75  50  41 W6        30.22F

$$
NMZ527>531-310000-
NORTHEAST HIGHLANDS/NORTHEAST PLAINS

CITY           SKY/WX    TMP DP  RH WIND       PRES   REMARKS
LAS VEGAS      FAIR      81  41  24 W10       30.15F
RATON          TSTM      70  50  49 SW31G38   30.15R
CLAYTON        FAIR      91  55  29 S21G31    30.00F

$$
NMZ532>537-310000-
EASTCENTRAL PLAINS

CITY           SKY/WX    TMP DP  RH WIND       PRES   REMARKS
TUCUMCARI      FAIR      97  48  18 S18G30    29.93F
CANNON AFB     FAIR      91  53  27 S15       30.00F
CLOVIS AIRPORT FAIR      91  57  31 S12G21    30.01F

$$
NMZ028-029-538-310000-
SOUTHEAST PLAINS

CITY           SKY/WX    TMP DP  RH WIND       PRES   REMARKS
ROSWELL        FAIR      97  52  21 S13G26    29.95F
ARTESIA        FAIR      95  54  24 SE15      29.95F
CARLSBAD       FAIR      94  53  25 SE10G22   29.92F
HOBBS          MOSUNNY   93  50  22 SE12G21   29.99F


$$




USA.gov is the U.S. government's official web portal to all federal, state and local government web resources and services.